Stations météo

réclame
Mon MeteoGroup
Dieppe, France (7040): Température de l'air & dewpoint: 14.11.2017 12:00:00 - 20.11.2017 12:00:00 (CET)Dieppe, France (7040): Température de l'air 5cm: 14.11.2017 12:00:00 - 20.11.2017 12:00:00 (CET)Dieppe, France (7040): Vitesse du vent & gusts: 14.11.2017 12:00:00 - 20.11.2017 12:00:00 (CET)Dieppe, France (7040): Direction du vent: 14.11.2017 12:00:00 - 20.11.2017 12:00:00 (CET)Dieppe, France (7040): reduced air pressure: 14.11.2017 12:00:00 - 20.11.2017 12:00:00 (CET)Dieppe, France (7040): visibility: 14.11.2017 12:00:00 - 20.11.2017 12:00:00 (CET)Dieppe, France (7040): Quantités de précipitations: 14.11.2017 12:00:00 - 20.11.2017 12:00:00 (CET)
Date & Time tt [°C] td [°C] tt 5cm [°C] ff [km/h] ff [knt] fx [km/h] fx [knt] dd ppp [hPa] vv [km] rr [mm]
20.11.2017 12:00:00 10,8 7,7 10,3 23 12 45 24 SW 1019,7 - 0,0
20.11.2017 11:00:00 10,3 7,7 9,4 21 12 40 22 SSW 1019,8 - 0,0
20.11.2017 10:00:00 9,5 7,1 8,2 22 12 37 20 SSW 1019,8 10 0,0
20.11.2017 09:00:00 8,6 6,6 7,5 18 10 36 20 S 1020,3 - 0,0
20.11.2017 08:00:00 8,2 6,0 6,5 20 11 34 18 S 1020,5 - 0,0
20.11.2017 07:00:00 7,4 4,4 6,5 19 10 32 17 S 1020,7 10 0,0
20.11.2017 06:00:00 6,5 4,0 5,5 16 9 30 16 S 1021,1 - 0,0
20.11.2017 05:00:00 5,8 3,3 5,1 17 9 29 16 S 1021,5 - 0,0
20.11.2017 04:00:00 5,2 2,9 4,2 16 9 24 13 S 1022,4 - 0,0
20.11.2017 03:00:00 4,6 2,3 3,5 16 8 22 12 S 1023,2 - 0,0
20.11.2017 02:00:00 3,9 1,6 3,3 15 8 20 11 S 1023,5 - 0,0
20.11.2017 01:00:00 3,5 1,5 2,5 14 8 19 10 S 1024,4 - 0,0
20.11.2017 00:00:00 3,0 0,9 2,6 13 7 18 10 S 1024,7 - 0,0
19.11.2017 23:00:00 3,1 0,7 2,6 13 7 18 10 S 1024,9 - 0,0
19.11.2017 22:00:00 3,6 1,0 2,8 13 7 18 10 S 1024,7 - 0,0
19.11.2017 21:00:00 3,9 0,8 3,1 11 6 14 7 S 1024,9 - 0,0
19.11.2017 20:00:00 5,2 0,9 4,3 9 5 14 7 S 1024,9 - 0,0
19.11.2017 19:00:00 7,0 0,4 5,5 8 5 23 12 W 1024,9 - 0,0
19.11.2017 18:00:00 7,6 -0,1 6,5 9 5 19 10 WNW 1024,5 - 0,0
19.11.2017 17:00:00 8,1 0,1 7,6 11 6 22 12 NW 1024,2 - 0,0
19.11.2017 16:00:00 9,1 0,5 10,1 10 5 20 11 W 1024,2 - 0,0
19.11.2017 15:00:00 9,2 0,1 8,5 9 5 19 11 WNW 1024,3 - 0,0
19.11.2017 14:00:00 9,3 1,0 10,1 10 5 17 9 NW 1024,4 - 0,0
19.11.2017 13:00:00 9,3 1,0 9,4 10 5 23 12 NNW 1024,3 - 0,0
19.11.2017 12:00:00 8,8 1,0 8,6 15 8 29 16 NNW 1024,4 - 0,0
19.11.2017 11:00:00 8,7 0,9 8,5 19 10 34 18 NNW 1024,1 - 0,0
19.11.2017 10:00:00 8,7 1,6 8,1 23 12 39 21 NNW 1023,5 14 0,0
19.11.2017 09:00:00 8,4 1,1 7,7 25 13 43 23 N 1023,1 - 0,0
19.11.2017 08:00:00 8,5 1,2 8,0 29 16 41 22 N 1022,5 - 0,0
19.11.2017 07:00:00 8,7 1,8 8,2 30 16 45 24 N 1022,0 - 0,0
19.11.2017 06:00:00 9,0 1,9 8,4 29 16 45 25 N 1021,6 - 0,0
19.11.2017 05:00:00 9,5 2,8 9,1 32 17 46 25 N 1021,5 - 0,0
19.11.2017 04:00:00 9,7 3,6 9,5 31 17 42 23 N 1021,2 - 0,0
19.11.2017 03:00:00 10,0 4,4 9,7 27 15 40 22 N 1020,9 - 0,0
19.11.2017 02:00:00 10,1 5,5 9,6 27 14 42 23 N 1020,7 - 0,0
19.11.2017 01:00:00 10,0 8,1 9,3 27 14 40 22 N 1020,7 - 0,2
19.11.2017 00:00:00 10,1 8,9 9,4 31 17 58 31 N 1020,5 - 1,2
18.11.2017 23:00:00 12,4 9,9 10,9 37 20 62 33 W 1019,8 - 0,2
18.11.2017 22:00:00 11,8 9,7 9,7 34 18 56 30 WSW 1020,2 - 0,0
18.11.2017 21:00:00 10,2 9,0 8,9 24 13 44 24 SW 1020,8 - 0,4
18.11.2017 20:00:00 9,8 7,9 8,9 23 12 51 28 SW 1021,3 - 0,0
18.11.2017 19:00:00 9,8 7,0 8,7 26 14 46 25 SW 1021,6 - 0,0
18.11.2017 18:00:00 9,3 6,6 8,1 21 12 42 23 SW 1022,2 - 0,0
18.11.2017 17:00:00 8,9 7,3 8,2 22 12 42 23 SW 1022,6 - 0,2
18.11.2017 16:00:00 9,9 6,8 9,0 23 12 38 20 WSW 1022,9 - 0,0
18.11.2017 15:00:00 9,5 6,8 9,0 16 9 28 15 SW 1023,3 - 0,0
18.11.2017 14:00:00 9,7 5,7 9,4 12 6 25 13 SSW 1023,9 - -
18.11.2017 13:00:00 10,9 5,4 10,5 18 10 32 17 W 1024,6 - 0,0
18.11.2017 12:00:00 10,5 4,8 10,1 18 10 34 18 WNW 1025,4 - 0,0
18.11.2017 11:00:00 10,2 4,6 9,7 23 13 35 19 WNW 1025,6 - 0,0
18.11.2017 10:00:00 9,9 3,8 7,5 21 11 37 20 WNW 1025,6 14 0,0
18.11.2017 09:00:00 9,1 2,4 8,2 15 8 31 17 WNW 1025,7 - 0,0
18.11.2017 08:00:00 8,8 2,1 4,1 23 13 38 21 NW 1025,7 - 0,0
18.11.2017 07:00:00 6,2 2,3 3,4 8 4 21 11 SSW 1025,5 - 0,0
18.11.2017 06:00:00 3,9 2,3 3,6 6 4 13 7 S 1025,6 - 0,0
18.11.2017 05:00:00 4,6 2,9 3,6 8 4 16 8 SSE 1026,0 - 0,0
18.11.2017 04:00:00 3,8 2,3 3,3 10 6 17 9 S 1026,1 - 0,0
18.11.2017 03:00:00 3,8 2,6 3,1 12 7 18 10 S 1026,6 - 0,0
18.11.2017 02:00:00 3,6 2,4 3,2 13 7 17 9 S 1027,2 - 0,0
18.11.2017 01:00:00 3,6 2,4 3,1 12 6 16 9 S 1027,2 - 0,0
18.11.2017 00:00:00 4,3 3,0 3,8 11 6 16 9 SSE 1027,5 - 0,0
17.11.2017 23:00:00 4,6 2,8 3,9 9 5 14 7 SSE 1027,9 - 0,0
17.11.2017 22:00:00 5,8 4,0 5,1 10 5 14 8 SSE 1027,7 - 0,0
17.11.2017 21:00:00 6,1 3,8 5,6 11 6 16 9 SSE 1027,7 - 0,0
17.11.2017 20:00:00 7,5 3,9 6,2 6 4 16 8 SSE 1028,1 - 0,0
17.11.2017 19:00:00 8,2 3,8 6,3 9 5 16 9 E 1028,1 - 0,0
17.11.2017 18:00:00 9,1 4,3 7,7 9 5 20 11 ENE 1027,8 - 0,0
17.11.2017 17:00:00 9,6 5,2 8,8 8 4 16 9 NE 1027,7 - 0,0
17.11.2017 16:00:00 10,2 5,6 11,8 9 5 15 8 ENE 1027,6 - 0,0
17.11.2017 15:00:00 10,7 5,9 10,9 10 6 18 10 NE 1028,1 - 0,0
17.11.2017 14:00:00 10,8 6,3 11,6 13 7 19 10 NE 1028,2 - 0,0
17.11.2017 13:00:00 10,7 5,7 10,9 5 3 14 8 NNE 1028,7 18 0,0
17.11.2017 12:00:00 11,1 5,8 12,8 6 3 13 7 NE 1028,6 - 0,0
17.11.2017 11:00:00 10,3 6,1 11,7 6 3 17 9 ENE 1028,6 - 0,0
17.11.2017 10:00:00 9,8 6,5 9,1 8 5 22 12 ENE 1028,6 10 0,0
17.11.2017 09:00:00 9,2 6,1 8,9 13 7 24 13 ENE 1028,5 - 0,0
17.11.2017 08:00:00 9,6 7,0 9,2 14 7 24 13 ENE 1028,2 - 0,0
17.11.2017 07:00:00 9,8 7,2 9,2 13 7 22 12 ENE 1027,7 10 0,0
17.11.2017 06:00:00 9,8 7,4 9,5 10 6 29 15 ENE 1027,4 - 0,0
17.11.2017 05:00:00 9,9 7,7 9,6 13 7 22 12 ENE 1027,2 - 0,0
17.11.2017 04:00:00 10,0 8,4 9,7 10 5 29 16 ENE 1026,9 - 0,0
17.11.2017 03:00:00 10,5 8,6 9,8 22 12 35 19 NE 1026,7 - 0,0
17.11.2017 02:00:00 10,0 8,4 8,8 7 4 18 10 E 1026,4 - 0,0
17.11.2017 01:00:00 9,2 7,1 8,6 8 5 17 9 S 1026,1 - 0,0
17.11.2017 00:00:00 9,3 7,2 8,7 11 6 16 9 S 1026,0 - 0,0
16.11.2017 23:00:00 9,3 7,2 8,6 11 6 16 9 S 1025,9 - 0,0
16.11.2017 22:00:00 9,6 7,2 9,0 10 6 16 9 S 1025,7 - 0,0
16.11.2017 21:00:00 9,9 7,3 9,6 10 5 15 8 S 1025,7 - 0,0
16.11.2017 20:00:00 9,9 7,1 9,5 11 6 19 10 S 1025,2 - 0,0
16.11.2017 19:00:00 9,9 7,3 8,9 11 6 14 8 S 1025,0 10 0,0
16.11.2017 18:00:00 10,4 7,3 9,7 9 5 14 8 S 1024,5 - 0,0
16.11.2017 17:00:00 10,9 7,4 10,5 6 3 14 7 SSW 1024,4 - 0,0
16.11.2017 16:00:00 11,2 7,3 11,1 9 5 16 9 SSW 1024,0 12 0,0
16.11.2017 15:00:00 11,4 7,3 11,5 10 5 19 10 SSW 1023,9 - 0,0
16.11.2017 14:00:00 11,5 7,0 11,7 9 5 21 11 SSW 1024,3 - 0,0
16.11.2017 13:00:00 11,2 6,9 11,1 11 6 20 11 S 1024,3 9 0,0
16.11.2017 12:00:00 10,6 7,3 10,3 11 6 21 11 S 1024,6 - 0,0
16.11.2017 11:00:00 9,9 7,0 9,3 12 6 22 12 S 1024,7 - 0,0
16.11.2017 10:00:00 9,2 7,0 8,8 14 7 23 13 S 1024,5 6 0,0
16.11.2017 09:00:00 8,8 6,8 8,6 15 8 25 14 S 1023,9 - 0,0
16.11.2017 08:00:00 8,8 6,8 8,5 15 8 24 13 S 1023,5 - 0,0
16.11.2017 07:00:00 8,7 6,7 8,4 15 8 24 13 S 1023,1 12 0,0
16.11.2017 06:00:00 8,9 6,5 8,6 14 7 25 13 S 1023,0 - 0,0
16.11.2017 05:00:00 9,2 6,8 8,9 15 8 22 12 S 1023,4 - 0,0
16.11.2017 04:00:00 9,5 7,3 9,1 13 7 20 11 S 1023,5 - 0,0
16.11.2017 03:00:00 9,6 7,5 9,2 12 7 22 12 S 1023,9 - 0,0
16.11.2017 02:00:00 9,9 7,7 9,6 13 7 19 10 SSE 1023,8 - 0,0
16.11.2017 01:00:00 10,0 7,4 9,6 11 6 20 11 S 1024,2 - 0,0
16.11.2017 00:00:00 10,2 7,4 9,8 12 6 19 10 S 1024,1 - 0,0
15.11.2017 23:00:00 10,5 7,4 9,9 8 5 15 8 SSE 1024,3 - 0,0
15.11.2017 22:00:00 10,7 7,6 10,1 9 5 17 9 S 1024,7 - 0,0
15.11.2017 21:00:00 10,6 7,8 10,2 10 5 17 9 S 1024,7 - 0,0
15.11.2017 20:00:00 10,9 8,1 10,6 11 6 18 10 S 1024,8 - 0,0
15.11.2017 19:00:00 11,0 8,2 10,5 11 6 16 9 S 1024,8 12 0,0
15.11.2017 18:00:00 11,3 8,9 10,8 9 5 14 8 S 1024,8 - 0,0
15.11.2017 17:00:00 11,4 9,1 11,0 6 4 13 7 S 1025,0 - 0,0
15.11.2017 16:00:00 11,4 9,8 11,0 8 5 27 14 SSW 1025,3 2,0 0,0
15.11.2017 15:00:00 12,3 9,1 12,2 9 5 18 10 SW 1025,4 - 0,0
15.11.2017 14:00:00 12,0 9,2 12,3 8 4 17 9 WSW 1025,2 - 0,0
15.11.2017 13:00:00 11,9 9,1 12,0 11 6 19 10 SW 1025,5 10 0,0
15.11.2017 12:00:00 11,6 9,0 12,0 11 6 21 12 SSW 1026,0 - 0,0
15.11.2017 11:00:00 10,7 8,8 9,9 11 6 19 11 S 1026,0 - 0,0
15.11.2017 10:00:00 9,7 8,0 9,0 12 6 18 10 S 1026,1 10 0,0
15.11.2017 09:00:00 9,1 7,4 8,5 11 6 20 11 S 1026,1 - 0,0
15.11.2017 08:00:00 9,2 7,5 8,5 14 7 24 13 SSE 1025,8 - 0,0
15.11.2017 07:00:00 9,3 7,6 8,8 13 7 21 11 S 1025,4 - 0,0
15.11.2017 06:00:00 9,2 7,5 8,8 10 6 18 10 S 1025,3 - 0,0
15.11.2017 05:00:00 9,3 7,7 8,8 10 5 21 11 S 1025,4 - 0,0
15.11.2017 04:00:00 9,5 8,1 9,0 12 7 27 15 S 1025,7 - 0,0
15.11.2017 03:00:00 9,5 8,4 9,0 15 8 25 13 S 1025,8 - 0,2
15.11.2017 02:00:00 9,5 8,4 9,0 14 7 28 15 SSW 1025,8 - 0,0
15.11.2017 01:00:00 9,7 8,1 9,0 15 8 27 15 SSW 1025,9 - 0,0
15.11.2017 00:00:00 9,8 8,1 9,1 15 8 27 15 SSW 1025,9 - 0,0
14.11.2017 23:00:00 9,8 8,2 9,2 13 7 27 15 S 1025,9 - 0,0
14.11.2017 22:00:00 9,9 7,8 9,5 14 8 27 14 SSW 1025,8 - 0,0
14.11.2017 21:00:00 9,8 7,9 9,1 13 7 24 13 SSW 1026,0 - 0,0
14.11.2017 20:00:00 9,9 7,8 9,2 11 6 27 15 SSW 1026,1 - 0,0
14.11.2017 19:00:00 10,0 6,7 9,5 13 7 27 14 SSW 1025,8 - 0,0
14.11.2017 18:00:00 9,8 6,7 9,4 13 7 28 15 SSW 1025,7 - 0,0
14.11.2017 17:00:00 9,9 6,2 9,6 13 7 28 15 SSW 1025,6 - 0,0
14.11.2017 16:00:00 9,6 6,3 9,3 13 7 24 13 S 1025,6 - 0,0
14.11.2017 15:00:00 9,7 5,7 9,5 11 6 22 12 SSW 1025,8 - 0,0
14.11.2017 14:00:00 10,1 5,9 10,1 13 7 24 13 SSW 1025,9 - 0,0
14.11.2017 13:00:00 9,6 5,6 9,2 13 7 24 13 SSW 1026,0 10 0,0
14.11.2017 12:00:00 8,7 5,1 7,6 15 8 27 15 S 1026,4 - 0,0

tt = Température de l'air
td = dewpoint
tt 5cm = Température de l'air 5cm
ff = Vitesse du vent
fx = gusts
dd = Direction du vent
ppp = reduced air pressure
vv = visibility
rr = Quantités de précipitations

stations d'obs. à proximité